Theta_e
310 310 308 307 308 308 310 309 307 303 303 301 302 302 301 301 301 303 305 307 309 307 303 304 308 309 309 315 318 325 321 319 322 324 322 315 314 319 314 321 320 322 321 325 321
309 307 303 302 303 304 307 304 300 300 301 302 302 302 300 304 300 302 304 306 304 304 304 306 309 309 310 311 315 323 320 316 317 315 317 312 310 311 313 318 316 318 322 315 311
308 303 303 303 302 303 302 299 300 299 299 301 301 300 303 306 302 302 301 302 303 304 303 304 308 309 310 310 309 314 316 315 314 309 307 307 306 307 307 309 312 312 309 308 308
306 302 302 304 303 303 300 298 298 300 299 300 302 300 300 300 303 302 301 302 303 305 305 305 305 308 308 308 305 306 309 308 307 306 307 306 304 305 305 306 307 306 306 306 306
306 302 302 304 303 302 299 297 298 299 300 300 302 300 299 303 302 301 301 303 303 304 306 307 307 305 305 304 305 306 305 306 306 306 305 303 304 304 304 304 305 305 305 305 305
305 301 302 303 303 301 298 297 298 299 300 301 301 299 301 303 301 301 301 302 303 304 305 306 307 307 307 306 304 305 306 306 304 303 303 304 303 302 303 305 305 304 305 305 305
304 301 302 302 303 299 298 298 299 300 300 300 301 300 302 301 301 301 302 302 303 303 305 305 307 306 306 306 305 305 303 303 303 303 303 303 302 303 303 305 304 304 305 305 305
304 301 302 303 302 298 298 298 299 300 300 300 300 299 301 299 300 301 301 302 302 303 304 305 306 304 304 302 303 303 303 303 303 303 303 303 303 303 304 304 304 305 305 305 305
304 302 302 303 300 298 298 299 299 300 299 299 299 298 300 300 301 300 301 302 302 301 301 301 302 304 304 302 303 304 303 303 303 303 303 304 304 304 304 304 305 305 305 307 308
303 302 303 303 299 298 298 300 300 299 299 299 299 300 300 301 300 300 301 301 302 302 303 304 303 304 303 303 303 302 303 303 304 303 303 304 305 305 305 305 305 305 308 309 308
303 302 303 303 299 298 298 299 300 302 300 301 300 299 300 300 300 301 300 301 301 302 303 302 303 303 303 303 303 303 304 305 304 303 302 304 305 305 306 305 305 308 310 309 308
303 302 303 303 299 298 299 302 302 301 300 298 299 300 298 299 301 301 301 303 301 301 302 301 301 302 302 302 303 304 304 304 303 303 303 305 306 306 305 305 306 309 310 307 306
303 302 303 301 299 298 301 302 303 301 301 297 298 300 299 300 300 300 301 301 301 300 301 302 301 301 300 301 303 301 303 302 302 303 304 305 307 306 306 305 306 310 308 306 305
303 302 303 298 299 297 301 300 302 298 309 299 299 299 300 300 301 298 299 301 301 299 300 299 299 299 300 301 302 301 302 301 302 304 309 304 310 307 306 305 305 308 307 306 306
303 302 302 297 297 299 299 299 301 300 328 299 299 298 298 301 299 300 298 300 300 298 300 297 298 298 301 301 301 300 300 301 303 305 305 307 307 307 306 306 307 309 306 306 305
303 303 302 300 297 298 300 300 299 319 319 301 298 300 300 299 299 298 300 299 298 297 297 298 297 300 300 300 299 299 303 302 303 306 309 306 308 307 306 306 308 306 306 306 305
303 304 301 299 299 299 301 299 317 323 298 304 300 300 300 299 299 299 301 300 300 302 300 297 296 297 297 297 299 303 306 308 309 310 311 305 304 306 305 305 307 306 306 305 302
303 304 300 298 298 299 298 308 314 303 301 297 298 298 301 298 298 298 300 301 300 297 297 298 301 296 296 296 299 302 305 305 307 309 307 304 306 305 306 307 305 306 305 302 300
303 301 298 298 298 299 303 313 316 306 298 300 294 302 300 296 297 297 300 301 300 298 298 297 296 295 296 296 299 303 306 302 305 305 305 306 305 304 306 306 305 306 303 301 299
303 299 298 298 299 296 304 309 301 294 296 296 308 296 302 297 298 297 296 299 300 299 297 296 298 294 295 297 300 301 300 303 304 307 307 306 306 306 305 307 306 304 301 299 296
302 301 297 298 296 301 308 304 295 296 297 298 299 295 297 299 297 299 297 297 299 299 297 296 296 297 294 299 298 300 304 303 303 304 307 307 307 304 305 305 304 302 300 297 294
299 301 297 296 301 292 303 296 296 297 298 297 295 295 300 295 298 298 299 296 298 298 298 297 297 297 296 294 293 297 300 302 301 302 302 302 303 301 304 303 301 301 299 295 293
300 297 296 294 304 301 295 297 298 298 300 298 298 297 293 296 299 295 296 296 297 297 297 297 295 298 301 297 296 297 298 300 298 298 300 303 306 305 304 302 301 300 296 294 292
299 301 296 298 296 299 299 301 300 298 299 298 298 297 296 295 294 295 295 295 297 297 297 295 295 296 298 296 293 294 294 296 296 298 300 303 306 304 303 301 300 299 295 293 291
299 301 299 300 299 298 298 300 300 300 298 298 299 299 299 297 296 296 296 296 296 296 297 297 296 293 294 295 295 295 295 295 296 297 299 305 300 301 301 299 299 297 294 292 290
300 299 295 298 297 298 299 302 301 299 299 300 299 299 298 299 299 297 296 296 297 296 297 295 296 293 292 292 295 295 295 296 296 296 296 297 299 301 300 300 300 296 293 292 289
298 297 302 299 299 299 303 301 299 299 298 298 299 299 298 298 294 293 294 295 296 297 296 295 294 293 297 290 290 296 295 297 299 297 298 303 305 302 298 300 299 294 292 290 288
Wind_Speed
13 14 14 14 14 13 14 14 15 13 12 11 10 8 4 1 12 20 21 17 15 20 14 6 2 2 3 3 2 1 5 9 11 7 1 7 10 5 11 10 10 5 9 5 15
13 14 15 13 13 13 14 14 14 12 11 12 10 9 3 3 2 21 18 20 15 19 8 6 5 4 4 3 3 4 5 6 1 2 5 11 10 13 9 15 16 18 4 17 21
13 15 14 13 12 13 13 14 13 11 9 11 13 8 3 1 1 7 26 20 14 17 4 4 2 2 4 2 3 0 4 1 2 6 8 10 13 6 12 16 15 17 19 21 24
13 14 13 13 12 13 14 14 13 11 8 8 13 7 7 1 2 11 25 16 12 15 4 9 4 3 3 2 3 2 2 4 5 7 6 8 10 10 13 17 12 16 13 16 19
12 13 13 12 12 12 14 15 12 10 8 8 11 7 1 5 5 17 19 13 9 13 15 4 9 2 4 3 2 1 3 6 5 6 5 7 8 13 19 17 9 12 14 17 17
12 13 13 12 12 13 14 14 9 8 7 7 9 5 2 6 8 18 11 11 11 9 11 12 5 4 6 3 2 3 6 8 4 5 1 8 18 5 7 9 10 16 20 20 21
12 13 13 12 12 14 17 14 7 5 5 6 7 2 10 6 7 19 7 9 8 6 4 6 4 2 2 2 4 3 4 5 4 5 4 14 6 7 11 10 18 22 20 20 18
12 13 13 12 13 14 16 7 7 2 5 5 5 2 3 2 7 21 13 4 8 8 3 5 3 6 4 1 1 3 1 7 5 9 3 10 10 17 18 15 21 19 16 15 15
12 13 12 11 13 15 13 1 9 1 4 6 3 2 2 5 7 17 13 6 4 3 8 4 4 4 4 3 1 7 7 9 10 5 5 4 18 20 24 18 17 14 11 8 7
12 13 12 11 13 15 9 3 4 6 2 2 5 1 5 6 8 15 10 8 4 2 1 6 4 4 9 10 5 8 7 7 13 7 9 17 22 22 19 15 14 8 2 4 7
11 12 11 11 13 14 8 2 1 1 11 5 2 1 3 12 3 17 13 5 3 7 4 4 6 8 8 5 4 8 11 15 16 9 14 12 24 22 17 10 5 4 3 6 10
10 11 10 10 11 12 6 5 2 2 4 3 1 2 2 6 3 17 14 4 6 5 3 2 5 3 5 3 5 9 13 12 12 3 12 17 23 18 7 3 6 5 4 7 11
8 9 8 10 7 5 11 5 4 2 1 2 2 3 3 7 4 11 11 3 6 5 7 2 2 4 3 3 8 12 6 13 12 21 4 12 12 5 3 5 6 7 6 7 10
8 7 6 8 1 3 4 3 2 3 1 2 2 3 1 2 2 4 7 3 3 3 2 2 2 3 3 3 6 7 1 14 16 11 6 8 6 10 3 11 9 9 7 10 15
8 5 4 6 1 2 2 2 2 1 2 2 1 3 2 5 5 5 4 2 2 4 4 2 2 3 1 4 5 8 17 18 14 8 7 3 4 8 11 7 8 7 11 15 16
7 5 3 1 2 5 3 3 1 3 4 1 2 3 1 5 4 6 4 5 1 0 0 2 1 2 3 9 4 13 12 3 2 1 3 3 4 12 6 7 8 8 12 17 22
8 6 3 1 2 6 3 0 3 3 2 1 1 2 3 4 3 8 5 8 6 4 6 4 1 0 2 5 1 12 7 4 3 2 4 2 9 12 14 14 11 11 20 22 26
10 7 4 2 4 5 3 3 2 1 5 2 1 2 2 4 3 4 2 3 6 3 1 5 2 1 2 2 4 4 4 3 6 5 12 16 8 6 6 5 6 17 19 24 25
12 8 4 5 5 2 3 2 5 5 4 8 3 2 2 1 1 1 3 2 1 2 3 3 4 1 2 1 2 1 1 2 5 6 5 5 7 14 4 8 20 24 23 25 17
14 7 3 6 6 2 3 4 3 2 5 2 4 2 4 3 3 1 2 3 4 1 2 2 6 2 1 1 2 2 4 2 2 5 7 7 13 12 14 19 20 22 24 22 24
8 2 1 6 4 2 3 5 3 2 1 3 4 4 2 3 2 3 4 2 3 4 1 3 2 0 1 4 1 2 2 3 3 3 4 7 9 4 13 20 23 24 25 24 23
8 2 2 7 2 1 3 5 4 4 2 2 3 3 4 7 4 4 5 3 5 6 3 4 2 5 3 2 3 3 2 2 3 2 5 6 9 6 13 21 24 21 20 24 22
4 3 3 1 3 3 1 2 4 6 5 5 4 1 2 5 3 4 4 3 6 5 5 5 2 5 2 3 3 4 5 5 1 1 9 4 9 15 19 23 22 20 21 22 21
4 4 2 0 1 3 5 4 5 2 3 3 4 4 3 2 1 4 5 4 5 5 6 5 3 5 5 4 2 7 5 7 4 4 5 11 19 24 25 25 22 19 20 19 19
2 4 3 6 6 5 1 7 7 7 2 5 3 8 6 4 3 4 4 4 3 5 4 4 4 5 11 17 15 18 19 14 15 12 7 10 13 25 21 21 16 15 21 20 19
6 5 1 4 4 10 3 6 10 5 9 6 6 10 10 5 4 8 8 5 5 6 7 3 3 3 5 4 3 9 16 17 16 16 18 23 25 12 18 17 16 17 20 20 19
4 4 5 9 7 7 9 7 9 9 5 1 11 7 10 8 4 4 4 6 8 8 8 5 2 2 5 6 11 7 8 12 6 10 6 8 11 13 18 18 14 18 18 18 18
Wind_Direction
355 358 353 354 350 355 353 351 352 357 1 3 358 353 332 108 38 42 36 350 338 340 349 337 38 93 89 98 28 292 239 255 258 263 311 351 346 337 329 279 326 313 320 11 353
351 354 353 355 351 354 351 352 355 357 9 11 9 357 340 185 34 35 0 352 351 351 359 26 87 129 86 57 28 223 231 242 6 353 309 323 325 321 310 303 296 298 286 327 331
350 353 354 356 354 353 349 352 354 357 6 12 13 12 36 144 111 355 350 353 356 359 11 20 52 73 88 70 24 351 265 66 165 341 333 309 296 310 287 282 293 312 316 319 318
347 351 350 352 351 350 348 349 348 350 342 348 3 7 39 49 44 337 342 352 6 17 71 42 35 63 74 90 17 253 11 344 330 329 313 305 313 286 279 280 302 304 310 310 310
344 348 346 346 348 348 345 344 343 347 349 349 354 4 28 59 27 338 346 8 19 29 37 49 59 81 103 93 114 47 334 291 283 289 271 298 284 285 274 277 276 285 296 305 307
342 346 343 342 344 343 341 338 340 350 8 5 5 19 59 72 338 353 355 22 33 29 34 41 56 65 94 78 32 332 288 284 243 351 344 328 308 269 280 215 280 308 307 310 307
341 344 342 339 343 343 341 337 335 347 354 356 12 76 70 87 15 8 31 37 41 41 51 46 59 77 110 108 358 326 299 292 197 346 342 324 244 257 296 276 298 305 307 309 311
339 343 341 339 341 341 342 349 336 14 34 8 13 25 75 342 357 10 16 30 35 46 75 38 68 84 37 355 23 356 336 341 335 341 22 344 309 294 298 317 302 303 302 311 321
333 339 338 338 340 344 344 48 33 109 10 12 33 49 56 334 1 1 6 353 355 46 40 49 59 58 36 8 144 35 322 318 311 314 306 314 299 287 305 307 300 308 315 327 350
323 334 334 337 341 345 344 256 317 24 8 51 42 143 35 332 317 346 357 12 27 325 92 36 45 51 30 20 8 324 318 304 297 333 324 302 288 301 310 309 302 310 313 319 328
319 330 333 338 341 344 1 334 241 138 41 70 64 59 321 328 344 3 356 336 1 62 33 24 45 35 4 2 308 287 286 291 296 331 324 306 296 307 313 310 296 200 245 316 326
316 326 331 335 342 354 23 68 84 20 90 44 86 7 338 342 336 4 6 34 29 47 337 166 63 27 321 318 303 298 293 309 305 241 328 316 302 309 301 253 215 203 269 321 324
308 321 327 335 341 12 60 80 84 49 10 39 61 48 348 349 42 356 6 10 30 35 22 52 83 329 323 323 330 323 276 325 314 315 283 306 287 283 265 223 216 222 274 291 313
294 311 326 338 351 40 59 54 61 28 89 360 7 43 37 357 74 346 15 7 46 23 349 55 49 326 311 321 341 311 313 306 302 314 302 18 286 301 225 289 236 233 271 319 329
278 293 314 30 99 63 105 94 114 47 311 113 18 328 62 65 323 30 5 3 65 333 298 29 327 333 339 346 330 276 316 294 300 275 318 173 257 272 299 294 252 259 319 323 326
258 262 273 5 85 112 97 111 353 54 258 204 326 341 118 39 33 313 8 52 41 216 27 323 309 270 339 303 281 306 301 306 183 273 256 203 251 283 301 298 292 288 316 325 326
230 237 230 193 212 121 107 95 39 176 58 262 36 18 71 27 57 17 29 34 20 358 357 323 126 120 350 316 182 348 330 341 332 307 284 152 296 264 295 294 283 313 325 328 321
211 201 195 168 155 132 109 53 191 339 203 142 147 109 102 1 60 27 103 84 47 10 54 341 306 349 24 7 324 6 356 39 306 310 297 290 236 281 317 307 312 326 327 323 319
186 174 160 168 160 158 94 104 224 201 138 157 117 115 117 109 16 113 55 126 90 360 334 321 262 230 213 1 253 92 358 22 264 248 273 258 274 286 12 331 325 321 321 322 321
160 161 140 165 149 96 74 243 225 149 138 155 192 262 164 171 180 165 176 174 161 228 282 203 288 165 11 259 211 277 355 246 215 303 298 276 298 314 347 330 320 327 327 326 325
141 103 139 157 143 66 185 226 219 211 176 181 182 140 159 173 177 180 158 177 189 168 231 172 269 140 271 197 260 196 186 216 281 257 290 309 300 5 343 328 336 330 329 331 329
150 141 173 160 112 336 185 188 155 163 217 148 121 98 157 171 151 205 209 225 162 160 200 188 205 269 251 139 274 231 216 218 248 267 262 275 274 286 331 340 338 324 330 333 330
125 110 35 51 178 212 262 171 192 153 202 171 158 81 151 168 185 204 208 151 163 164 190 184 225 303 177 156 171 222 193 207 110 275 246 274 277 313 326 337 332 325 336 333 333
150 127 111 222 287 191 168 199 186 204 153 143 126 115 139 143 282 180 213 179 183 187 177 179 193 234 248 301 4 266 237 230 162 238 267 246 283 301 325 334 329 334 336 334 338
184 171 189 172 220 228 247 168 151 173 208 181 159 216 176 151 167 218 178 158 173 196 181 198 254 217 263 270 278 274 268 250 228 222 240 287 301 301 315 330 324 333 335 340 345
139 149 97 140 130 171 213 220 180 164 160 206 210 193 188 172 196 193 159 196 175 177 177 178 268 298 280 282 258 271 259 250 241 242 255 268 280 279 333 327 333 343 341 345 348
151 93 117 158 145 159 209 217 205 133 234 266 195 134 202 218 128 71 73 102 156 168 171 169 229 335 269 340 310 267 240 199 186 193 199 259 297 327 326 327 340 344 347 347 346